| time (UTC) | temp F | wind direction | speed MPH | gust MPH | rain 1hr in | rain 24hr in | rain mn in | humidity % | barometer mb |
| 20260906110250 | 53 | 264 | 6.0 | 10.0 | 0.00 | 0.00 | 0.00 | 100 | |
| 20260906110049 | 53 | 228 | 6.0 | 10.0 | 0.00 | 0.00 | 0.00 | 100 | |
| 20260906105850 | 53 | 243 | 6.0 | 16.0 | 0.00 | 0.00 | 0.00 | 100 | |
| 20260906105648 | 53 | 272 | 4.0 | 8.0 | 0.00 | 0.00 | 0.00 | 100 | |
| 20260906105448 | 53 | 6 | 4.0 | 8.0 | 0.00 | 0.00 | 0.00 | 100 | |
| 20260906105248 | 53 | 123 | 4.0 | 10.0 | 0.00 | 0.00 | 0.00 | 100 | |
| 20260906105048 | 53 | 246 | 5.0 | 10.0 | 0.00 | 0.00 | 0.00 | 100 | |
| 20260906104848 | 53 | 298 | 5.0 | 10.0 | 0.00 | 0.00 | 0.00 | 100 | |
| 20260906104648 | 53 | 2 | 4.0 | 10.0 | 0.00 | 0.00 | 0.00 | 100 | |
| 20260906104448 | 52 | 21 | 3.0 | 7.0 | 0.00 | 0.00 | 0.00 | 100 | |
| 20260906104248 | 52 | 341 | 5.0 | 8.0 | 0.00 | 0.00 | 0.00 | 100 | |
| 20260906104048 | 52 | 270 | 5.0 | 11.0 | 0.00 | 0.00 | 0.00 | 100 | |
| 20260906103848 | 52 | 286 | 6.0 | 10.0 | 0.00 | 0.00 | 0.00 | 100 | |
| 20260906103646 | 52 | 264 | 6.0 | 10.0 | 0.00 | 0.00 | 0.00 | 100 | |
| 20260906103446 | 52 | 246 | 5.0 | 12.0 | 0.00 | 0.00 | 0.00 | 100 | |
| 20260906103246 | 52 | 250 | 8.0 | 18.0 | 0.00 | 0.00 | 0.00 | 100 | |
| 20260906103046 | 52 | 235 | 5.0 | 8.0 | 0.00 | 0.00 | 0.00 | 100 | |
| 20260906102846 | 52 | 343 | 4.0 | 12.0 | 0.00 | 0.00 | 0.00 | 100 | |
| 20260906102646 | 52 | 313 | 6.0 | 12.0 | 0.00 | 0.00 | 0.00 | 100 | |
| 20260906102446 | 51 | 0 | 4.0 | 8.0 | 0.00 | 0.00 | 0.00 | 100 | |
| 20260906102246 | 51 | 262 | 5.0 | 9.0 | 0.00 | 0.00 | 0.00 | 100 | |
| 20260906102046 | 50 | 270 | 6.0 | 12.0 | 0.00 | 0.00 | 0.00 | 100 | |
| 20260906101846 | 50 | 279 | 7.0 | 12.0 | 0.00 | 0.00 | 0.00 | 100 | |
| 20260906101644 | 50 | 270 | 8.0 | 13.0 | 0.00 | 0.00 | 0.00 | 100 | |
| 20260906101444 | 50 | 283 | 5.0 | 12.0 | 0.00 | 0.00 | 0.00 | 100 | |
| 20260906101244 | 51 | 286 | 5.0 | 11.0 | 0.00 | 0.00 | 0.00 | 100 | |
| 20260906101044 | 51 | 270 | 7.0 | 12.0 | 0.00 | 0.00 | 0.00 | 100 | |
| 20260906100844 | 51 | 264 | 6.0 | 12.0 | 0.00 | 0.00 | 0.00 | 100 | |
| 20260906100644 | 50 | 252 | 7.0 | 14.0 | 0.00 | 0.00 | 0.00 | 100 | |
| 20260906100445 | 50 | 258 | 6.0 | 14.0 | 0.00 | 0.00 | 0.00 | 100 | |
| 20260906100245 | 49 | 270 | 4.0 | 8.0 | 0.00 | 0.00 | 0.00 | 100 | |
| 20260906100045 | 49 | 270 | 4.0 | 8.0 | 0.00 | 0.00 | 0.00 | 100 | |
| 20260906095845 | 49 | 263 | 5.0 | 10.0 | 0.00 | 0.00 | 0.00 | 100 | |
| 20260906095643 | 49 | 300 | 6.0 | 10.0 | 0.00 | 0.00 | 0.00 | 100 | |
| 20260906095443 | 49 | 272 | 5.0 | 11.0 | 0.00 | 0.00 | 0.00 | 100 | |
| 20260906095243 | 49 | 140 | 4.0 | 9.0 | 0.00 | 0.00 | 0.00 | 100 | |
| 20260906095035 | 50 | 350 | 6.0 | 15.0 | 0.00 | 0.00 | 0.00 | 100 | |
| 20260906094835 | 50 | 329 | 5.0 | 15.0 | 0.00 | 0.00 | 0.00 | 100 | |
| 20260906094635 | 50 | 322 | 3.0 | 7.0 | 0.00 | 0.00 | 0.00 | 100 | |
| 20260906094435 | 50 | 313 | 4.0 | 8.0 | 0.00 | 0.00 | 0.00 | 100 | |
| 20260906094235 | 50 | 340 | 6.0 | 10.0 | 0.00 | 0.00 | 0.00 | 100 | |
| 20260906094036 | 49 | 299 | 5.0 | 10.0 | 0.00 | 0.00 | 0.00 | 100 | |
| 20260906093836 | 49 | 292 | 5.0 | 10.0 | 0.00 | 0.00 | 0.00 | 100 | |
| 20260906093634 | 49 | 280 | 4.0 | 10.0 | 0.00 | 0.00 | 0.00 | 100 | |
| 20260906093433 | 49 | 268 | 4.0 | 8.0 | 0.00 | 0.00 | 0.00 | 100 | |
| 20260906093233 | 50 | 322 | 5.0 | 8.0 | 0.00 | 0.00 | 0.00 | 100 | |
| 20260906093033 | 50 | 35 | 7.0 | 13.0 | 0.00 | 0.00 | 0.00 | 100 | |
| 20260906092833 | 50 | 0 | 6.0 | 13.0 | 0.00 | 0.00 | 0.00 | 100 | |
| 20260906092633 | 50 | 352 | 4.0 | 9.0 | 0.00 | 0.00 | 0.00 | 100 | |
| 20260906092433 | 50 | 0 | 5.0 | 13.0 | 0.00 | 0.00 | 0.00 | 100 | |
| 20260906092233 | 50 | 358 | 4.0 | 12.0 | 0.00 | 0.00 | 0.00 | 100 | |
| 20260906092033 | 49 | 301 | 4.0 | 9.0 | 0.00 | 0.00 | 0.00 | 100 | |
| 20260906091833 | 49 | 274 | 6.0 | 9.0 | 0.00 | 0.00 | 0.00 | 100 | |
| 20260906091631 | 48 | 347 | 6.0 | 11.0 | 0.00 | 0.00 | 0.00 | 100 | |
| 20260906091430 | 48 | 336 | 6.0 | 11.0 | 0.00 | 0.00 | 0.00 | 100 | |
| 20260906091230 | 48 | 334 | 5.0 | 11.0 | 0.00 | 0.00 | 0.00 | 100 | |
| 20260906091031 | 49 | 32 | 4.0 | 7.0 | 0.00 | 0.00 | 0.00 | 100 | |
| 20260906090831 | 49 | 340 | 6.0 | 10.0 | 0.00 | 0.00 | 0.00 | 100 | |
| 20260906090631 | 49 | 0 | 4.0 | 6.0 | 0.00 | 0.00 | 0.00 | 100 | |
| 20260906090431 | 50 | 327 | 5.0 | 8.0 | 0.00 | 0.00 | 0.00 | 100 | |
| 20260906090231 | 50 | 261 | 5.0 | 14.0 | 0.00 | 0.00 | 0.00 | 100 | |
| 20260906090031 | 50 | 318 | 5.0 | 8.0 | 0.00 | 0.00 | 0.00 | 100 | |
| 20260906085831 | 50 | 292 | 6.0 | 10.0 | 0.00 | 0.00 | 0.00 | 100 | |
| 20260906085629 | 50 | 314 | 6.0 | 10.0 | 0.00 | 0.00 | 0.00 | 100 | |
| 20260906085429 | 50 | 319 | 5.0 | 15.0 | 0.00 | 0.00 | 0.00 | 100 | |
| 20260906085228 | 49 | 315 | 6.0 | 14.0 | 0.00 | 0.00 | 0.00 | 100 | |
| 20260906085028 | 48 | 355 | 6.0 | 12.0 | 0.00 | 0.00 | 0.00 | 100 | |
| 20260906084828 | 48 | 351 | 7.0 | 12.0 | 0.00 | 0.00 | 0.00 | 100 | |
| 20260906084628 | 48 | 355 | 6.0 | 13.0 | 0.00 | 0.00 | 0.00 | 100 | |
| 20260906084428 | 48 | 345 | 6.0 | 11.0 | 0.00 | 0.00 | 0.00 | 100 | |
| 20260906084228 | 48 | 311 | 6.0 | 10.0 | 0.00 | 0.00 | 0.00 | 100 | |
| 20260906084028 | 48 | 310 | 4.0 | 10.0 | 0.00 | 0.00 | 0.00 | 100 | |
| 20260906083829 | 48 | 354 | 2.0 | 4.0 | 0.00 | 0.00 | 0.00 | 100 | |
| 20260906083626 | 48 | 41 | 2.0 | 4.0 | 0.00 | 0.00 | 0.00 | 100 | |
| 20260906083427 | 48 | 10 | 4.0 | 9.0 | 0.00 | 0.00 | 0.00 | 100 | |
| 20260906083226 | 48 | 9 | 4.0 | 8.0 | 0.00 | 0.00 | 0.00 | 100 | |
| 20260906083026 | 48 | 289 | 3.0 | 6.0 | 0.00 | 0.00 | 0.00 | 100 | |
| 20260906082826 | 48 | 297 | 4.0 | 9.0 | 0.00 | 0.00 | 0.00 | 100 | |
| 20260906082626 | 49 | 331 | 7.0 | 14.0 | 0.00 | 0.00 | 0.00 | 100 | |
| 20260906082426 | 49 | 320 | 6.0 | 14.0 | 0.00 | 0.00 | 0.00 | 100 | |
| 20260906082226 | 49 | 334 | 7.0 | 11.0 | 0.00 | 0.00 | 0.00 | 100 | |
| 20260906082026 | 49 | 292 | 5.0 | 14.0 | 0.00 | 0.00 | 0.00 | 100 | |
| 20260906081826 | 49 | 35 | 3.0 | 8.0 | 0.00 | 0.00 | 0.00 | 100 | |
| 20260906081624 | 49 | 334 | 4.0 | 8.0 | 0.00 | 0.00 | 0.00 | 100 | |
| 20260906081424 | 48 | 285 | 6.0 | 11.0 | 0.00 | 0.00 | 0.00 | 100 | |
| 20260906081224 | 48 | 290 | 6.0 | 11.0 | 0.00 | 0.00 | 0.00 | 100 | |
| 20260906081023 | 48 | 322 | 5.0 | 9.0 | 0.00 | 0.00 | 0.00 | 100 | |
| 20260906080823 | 48 | 266 | 7.0 | 14.0 | 0.00 | 0.00 | 0.00 | 100 | |
| 20260906080623 | 48 | 255 | 7.0 | 16.0 | 0.00 | 0.00 | 0.00 | 100 | |
| 20260906080423 | 48 | 253 | 7.0 | 16.0 | 0.00 | 0.00 | 0.00 | 100 | |
| 20260906080223 | 48 | 249 | 5.0 | 8.0 | 0.00 | 0.00 | 0.00 | 100 | |
| 20260906080023 | 48 | 255 | 5.0 | 8.0 | 0.00 | 0.00 | 0.00 | 100 | |
| 20260906075824 | 48 | 161 | 5.0 | 8.0 | 0.00 | 0.00 | 0.00 | 100 | |
| 20260906075622 | 48 | 192 | 3.0 | 7.0 | 0.00 | 0.00 | 0.00 | 100 | |
| 20260906075419 | 47 | 233 | 3.0 | 6.0 | 0.00 | 0.00 | 0.00 | 100 | |
| 20260906075220 | 47 | 237 | 4.0 | 9.0 | 0.00 | 0.00 | 0.00 | 100 | |
| 20260906075020 | 47 | 228 | 4.0 | 6.0 | 0.00 | 0.00 | 0.00 | 100 | |
| 20260906074820 | 47 | 306 | 4.0 | 8.0 | 0.00 | 0.00 | 0.00 | 100 | |
| 20260906074620 | 47 | 278 | 6.0 | 12.0 | 0.00 | 0.00 | 0.00 | 100 | |
| 20260906074420 | 47 | 284 | 3.0 | 6.0 | 0.00 | 0.00 | 0.00 | 100 | |
| 20260906074220 | 48 | 291 | 6.0 | 12.0 | 0.00 | 0.00 | 0.00 | 100 | |
| 20260906074020 | 48 | 344 | 7.0 | 12.0 | 0.00 | 0.00 | 0.00 | 100 | |
| 20260906073820 | 48 | 359 | 6.0 | 14.0 | 0.00 | 0.00 | 0.00 | 100 | |
| 20260906073618 | 48 | 346 | 5.0 | 11.0 | 0.00 | 0.00 | 0.00 | 100 | |
| 20260906073418 | 47 | 342 | 6.0 | 15.0 | 0.00 | 0.00 | 0.00 | 100 | |
| 20260906073218 | 47 | 351 | 10.0 | 18.0 | 0.00 | 0.00 | 0.00 | 100 | |
| 20260906073018 | 47 | 326 | 7.0 | 16.0 | 0.00 | 0.00 | 0.00 | 100 | |
| 20260906072818 | 47 | 301 | 8.0 | 15.0 | 0.00 | 0.00 | 0.00 | 100 | |
| 20260906072618 | 47 | 340 | 7.0 | 15.0 | 0.00 | 0.00 | 0.00 | 100 | |
| 20260906072418 | 47 | 211 | 6.0 | 9.0 | 0.00 | 0.00 | 0.00 | 100 | |
| 20260906072218 | 47 | 290 | 4.0 | 8.0 | 0.00 | 0.00 | 0.00 | 100 | |
| 20260906072018 | 47 | 338 | 4.0 | 8.0 | 0.00 | 0.00 | 0.00 | 100 | |
| 20260906071818 | 47 | 341 | 4.0 | 8.0 | 0.00 | 0.00 | 0.00 | 100 | |
| 20260906071607 | 47 | 41 | 5.0 | 10.0 | 0.00 | 0.00 | 0.00 | 100 | |
| 20260906071407 | 47 | 21 | 4.0 | 10.0 | 0.00 | 0.00 | 0.00 | 100 | |
| 20260906071207 | 47 | 1 | 5.0 | 16.0 | 0.00 | 0.00 | 0.00 | 100 | |
| 20260906071007 | 47 | 298 | 7.0 | 16.0 | 0.00 | 0.00 | 0.00 | 100 | |
| 20260906070807 | 47 | 303 | 6.0 | 14.0 | 0.00 | 0.00 | 0.00 | 100 | |
| 20260906070607 | 47 | 312 | 5.0 | 11.0 | 0.00 | 0.00 | 0.00 | 100 | |
| 20260906070407 | 47 | 239 | 7.0 | 12.0 | 0.00 | 0.00 | 0.00 | 100 | |
| 20260906070207 | 47 | 169 | 5.0 | 12.0 | 0.00 | 0.00 | 0.00 | 100 | |
| 20260906070007 | 47 | 326 | 4.0 | 8.0 | 0.00 | 0.00 | 0.00 | 100 | |
| 20260906065807 | 47 | 299 | 7.0 | 12.0 | 0.00 | 0.00 | 0.00 | 100 | |
| 20260906065605 | 47 | 293 | 8.0 | 14.0 | 0.00 | 0.00 | 0.00 | 100 | |
| 20260906065405 | 47 | 241 | 6.0 | 13.0 | 0.00 | 0.00 | 0.00 | 100 | |
| 20260906065205 | 47 | 219 | 5.0 | 13.0 | 0.00 | 0.00 | 0.00 | 100 | |
| 20260906065005 | 47 | 357 | 4.0 | 8.0 | 0.00 | 0.00 | 0.00 | 100 | |
| 20260906064805 | 47 | 340 | 6.0 | 11.0 | 0.00 | 0.00 | 0.00 | 100 | |
| 20260906064605 | 47 | 307 | 8.0 | 17.0 | 0.00 | 0.00 | 0.00 | 100 | |
| 20260906064406 | 47 | 302 | 8.0 | 17.0 | 0.00 | 0.00 | 0.00 | 100 | |
| 20260906064206 | 47 | 227 | 8.0 | 13.0 | 0.00 | 0.00 | 0.00 | 100 | |
| 20260906064006 | 47 | 270 | 5.0 | 13.0 | 0.00 | 0.00 | 0.00 | 100 | |
| 20260906063806 | 47 | 233 | 4.0 | 13.0 | 0.00 | 0.00 | 0.00 | 100 | |
| 20260906063604 | 47 | 312 | 7.0 | 14.0 | 0.00 | 0.00 | 0.00 | 100 | |
| 20260906063403 | 47 | 225 | 5.0 | 14.0 | 0.00 | 0.00 | 0.00 | 100 | |
| 20260906063203 | 47 | 154 | 4.0 | 10.0 | 0.00 | 0.00 | 0.00 | 100 | |
| 20260906063003 | 47 | 287 | 6.0 | 17.0 | 0.00 | 0.00 | 0.00 | 100 | |
| 20260906062803 | 47 | 321 | 6.0 | 10.0 | 0.00 | 0.00 | 0.00 | 100 | |
| 20260906062603 | 47 | 293 | 4.0 | 10.0 | 0.00 | 0.00 | 0.00 | 100 | |
| 20260906062403 | 47 | 291 | 6.0 | 14.0 | 0.00 | 0.00 | 0.00 | 100 | |
| 20260906062203 | 47 | 258 | 6.0 | 13.0 | 0.00 | 0.00 | 0.00 | 100 | |
| 20260906062003 | 47 | 302 | 5.0 | 9.0 | 0.00 | 0.00 | 0.00 | 100 | |
| 20260906061803 | 47 | 194 | 5.0 | 12.0 | 0.00 | 0.00 | 0.00 | 100 | |
| 20260906061601 | 47 | 281 | 7.0 | 12.0 | 0.00 | 0.00 | 0.00 | 100 | |
| 20260906061401 | 47 | 317 | 6.0 | 14.0 | 0.00 | 0.00 | 0.00 | 100 | |
| 20260906061201 | 47 | 18 | 4.0 | 10.0 | 0.00 | 0.00 | 0.00 | 100 | |
| 20260906061001 | 47 | 21 | 4.0 | 11.0 | 0.00 | 0.00 | 0.00 | 100 | |
| 20260906060801 | 47 | 296 | 6.0 | 16.0 | 0.00 | 0.00 | 0.00 | 100 | |
| 20260906060601 | 47 | 280 | 5.0 | 9.0 | 0.00 | 0.00 | 0.00 | 100 | |
| 20260906060401 | 47 | 253 | 4.0 | 7.0 | 0.00 | 0.00 | 0.00 | 100 | |
| 20260906060201 | 46 | 316 | 6.0 | 11.0 | 0.00 | 0.00 | 0.00 | 100 | |
| 20260906060001 | 46 | 306 | 6.0 | 10.0 | 0.00 | 0.00 | 0.00 | 100 | |
| 20260906055801 | 46 | 215 | 5.0 | 10.0 | 0.00 | 0.00 | 0.00 | 100 | |
| 20260906055559 | 46 | 278 | 4.0 | 9.0 | 0.00 | 0.00 | 0.00 | 100 | |
| 20260906055359 | 46 | 292 | 6.0 | 15.0 | 0.00 | 0.00 | 0.00 | 100 | |
| 20260906055158 | 46 | 291 | 4.0 | 9.0 | 0.00 | 0.00 | 0.00 | 100 | |
| 20260906054958 | 46 | 283 | 5.0 | 14.0 | 0.00 | 0.00 | 0.00 | 100 | |
| 20260906054758 | 46 | 262 | 7.0 | 14.0 | 0.00 | 0.00 | 0.00 | 100 | |
| 20260906054558 | 46 | 288 | 5.0 | 11.0 | 0.00 | 0.00 | 0.00 | 100 | |
| 20260906054358 | 46 | 331 | 5.0 | 12.0 | 0.00 | 0.00 | 0.00 | 100 | |
| 20260906054159 | 46 | 307 | 5.0 | 12.0 | 0.00 | 0.00 | 0.00 | 100 | |
| 20260906053958 | 46 | 287 | 6.0 | 10.0 | 0.00 | 0.00 | 0.00 | 100 | |
| 20260906053758 | 46 | 294 | 5.0 | 10.0 | 0.00 | 0.00 | 0.00 | 100 | |
| 20260906053556 | 46 | 261 | 6.0 | 10.0 | 0.00 | 0.00 | 0.00 | 100 | |
| 20260906053357 | 46 | 262 | 6.0 | 11.0 | 0.00 | 0.00 | 0.00 | 100 | |
| 20260906053156 | 46 | 275 | 7.0 | 11.0 | 0.00 | 0.00 | 0.00 | 100 | |
| 20260906052956 | 46 | 272 | 5.0 | 9.0 | 0.00 | 0.00 | 0.00 | 100 | |
| 20260906052756 | 46 | 286 | 6.0 | 14.0 | 0.00 | 0.00 | 0.00 | 100 | |
| 20260906052556 | 46 | 281 | 6.0 | 14.0 | 0.00 | 0.00 | 0.00 | 100 | |
| 20260906052356 | 46 | 281 | 7.0 | 11.0 | 0.00 | 0.00 | 0.00 | 100 | |
| 20260906052156 | 46 | 270 | 6.0 | 10.0 | 0.00 | 0.00 | 0.00 | 100 | |
| 20260906051956 | 46 | 269 | 5.0 | 12.0 | 0.00 | 0.00 | 0.00 | 100 | |
| 20260906051756 | 45 | 253 | 5.0 | 12.0 | 0.00 | 0.00 | 0.00 | 100 | |
| 20260906051554 | 45 | 257 | 6.0 | 12.0 | 0.00 | 0.00 | 0.00 | 100 | |
| 20260906051354 | 45 | 238 | 7.0 | 12.0 | 0.00 | 0.00 | 0.00 | 100 | |
| 20260906051154 | 45 | 256 | 6.0 | 11.0 | 0.00 | 0.00 | 0.00 | 100 | |
| 20260906050954 | 45 | 256 | 6.0 | 12.0 | 0.00 | 0.00 | 0.00 | 100 | |
| 20260906050754 | 45 | 270 | 6.0 | 9.0 | 0.00 | 0.00 | 0.00 | 100 | |
| 20260906050554 | 45 | 287 | 6.0 | 13.0 | 0.00 | 0.00 | 0.00 | 100 | |
| 20260906050354 | 45 | 274 | 8.0 | 13.0 | 0.00 | 0.00 | 0.00 | 100 | |
| 20260906050154 | 45 | 278 | 6.0 | 11.0 | 0.00 | 0.00 | 0.00 | 100 | |
| 20260906045955 | 45 | 270 | 6.0 | 10.0 | 0.00 | 0.00 | 0.00 | 100 | |
| 20260906045755 | 45 | 260 | 7.0 | 11.0 | 0.00 | 0.00 | 0.00 | 100 | |
| 20260906045553 | 45 | 287 | 6.0 | 12.0 | 0.00 | 0.00 | 0.00 | 100 | |
| 20260906045353 | 45 | 257 | 9.0 | 13.0 | 0.00 | 0.00 | 0.00 | 100 | |
| 20260906045153 | 45 | 282 | 6.0 | 10.0 | 0.00 | 0.00 | 0.00 | 100 | |
| 20260906044953 | 45 | 270 | 5.0 | 10.0 | 0.00 | 0.00 | 0.00 | 100 | |
| 20260906044753 | 45 | 267 | 6.0 | 13.0 | 0.00 | 0.00 | 0.00 | 100 | |
| 20260906044553 | 45 | 310 | 7.0 | 13.0 | 0.00 | 0.00 | 0.00 | 100 | |
| 20260906044353 | 45 | 310 | 8.0 | 15.0 | 0.00 | 0.00 | 0.00 | 100 | |
| 20260906044153 | 45 | 263 | 7.0 | 15.0 | 0.00 | 0.00 | 0.00 | 100 | |
| 20260906043945 | 45 | 281 | 8.0 | 20.0 | 0.00 | 0.00 | 0.00 | 100 | |
| 20260906043745 | 45 | 291 | 7.0 | 17.0 | 0.00 | 0.00 | 0.00 | 100 | |
| 20260906043543 | 45 | 296 | 8.0 | 17.0 | 0.00 | 0.00 | 0.00 | 100 | |
| 20260906043344 | 45 | 275 | 11.0 | 17.0 | 0.00 | 0.00 | 0.00 | 100 | |
| 20260906043144 | 45 | 258 | 7.0 | 17.0 | 0.00 | 0.00 | 0.00 | 100 | |
| 20260906042944 | 45 | 277 | 6.0 | 11.0 | 0.00 | 0.00 | 0.00 | 100 | |
| 20260906042743 | 45 | 274 | 7.0 | 12.0 | 0.00 | 0.00 | 0.00 | 100 | |
| 20260906042543 | 45 | 244 | 8.0 | 16.0 | 0.00 | 0.00 | 0.00 | 100 | |
| 20260906042344 | 45 | 278 | 7.0 | 16.0 | 0.00 | 0.00 | 0.00 | 100 | |
| 20260906042144 | 45 | 317 | 5.0 | 10.0 | 0.00 | 0.00 | 0.00 | 100 | |
| 20260906041944 | 45 | 305 | 6.0 | 12.0 | 0.00 | 0.00 | 0.00 | 100 | |
| 20260906041744 | 45 | 323 | 6.0 | 12.0 | 0.00 | 0.00 | 0.00 | 100 | |
| 20260906041542 | 44 | 330 | 6.0 | 11.0 | 0.00 | 0.00 | 0.00 | 100 | |
| 20260906041342 | 44 | 317 | 6.0 | 11.0 | 0.00 | 0.00 | 0.00 | 100 | |
| 20260906041142 | 44 | 327 | 5.0 | 8.0 | 0.00 | 0.00 | 0.00 | 100 | |
| 20260906040942 | 44 | 208 | 5.0 | 9.0 | 0.00 | 0.00 | 0.00 | 100 | |
| 20260906040742 | 44 | 255 | 6.0 | 11.0 | 0.00 | 0.00 | 0.00 | 100 | |
| 20260906040542 | 44 | 270 | 6.0 | 11.0 | 0.00 | 0.00 | 0.00 | 100 | |
| 20260906040342 | 44 | 281 | 6.0 | 16.0 | 0.00 | 0.00 | 0.00 | 100 | |
| 20260906040142 | 44 | 308 | 5.0 | 12.0 | 0.00 | 0.00 | 0.00 | 100 | |
| 20260906035942 | 44 | 270 | 7.0 | 12.0 | 0.00 | 0.00 | 0.00 | 100 | |
| 20260906035742 | 44 | 252 | 6.0 | 12.0 | 0.00 | 0.00 | 0.00 | 100 | |
| 20260906035541 | 44 | 222 | 7.0 | 12.0 | 0.00 | 0.00 | 0.00 | 100 | |
| 20260906035340 | 44 | 245 | 6.0 | 12.0 | 0.00 | 0.00 | 0.00 | 100 | |
| 20260906035140 | 44 | 240 | 4.0 | 9.0 | 0.00 | 0.00 | 0.00 | 100 | |
| 20260906034940 | 44 | 282 | 4.0 | 10.0 | 0.00 | 0.00 | 0.00 | 100 | |
| 20260906034740 | 44 | 288 | 4.0 | 10.0 | 0.00 | 0.00 | 0.00 | 100 | |
| 20260906034538 | 45 | 275 | 5.0 | 10.0 | 0.00 | 0.00 | 0.00 | 100 | |
| 20260906034338 | 45 | 320 | 6.0 | 11.0 | 0.00 | 0.00 | 0.00 | 100 | |
| 20260906034138 | 45 | 301 | 5.0 | 11.0 | 0.00 | 0.00 | 0.00 | 100 | |
| 20260906033938 | 45 | 285 | 7.0 | 11.0 | 0.00 | 0.00 | 0.00 | 100 | |
| 20260906033738 | 45 | 306 | 7.0 | 16.0 | 0.00 | 0.00 | 0.00 | 100 | |
| 20260906033536 | 45 | 289 | 7.0 | 14.0 | 0.00 | 0.00 | 0.00 | 100 | |
| 20260906033336 | 45 | 269 | 6.0 | 14.0 | 0.00 | 0.00 | 0.00 | 100 | |
| 20260906033136 | 45 | 301 | 5.0 | 9.0 | 0.00 | 0.00 | 0.00 | 100 | |
| 20260906032936 | 45 | 305 | 6.0 | 14.0 | 0.00 | 0.00 | 0.00 | 100 | |
| 20260906032736 | 45 | 282 | 6.0 | 12.0 | 0.00 | 0.00 | 0.00 | 100 | |
| 20260906032536 | 45 | 239 | 6.0 | 12.0 | 0.00 | 0.00 | 0.00 | 100 | |
| 20260906032336 | 45 | 253 | 5.0 | 12.0 | 0.00 | 0.00 | 0.00 | 100 | |
| 20260906032136 | 45 | 286 | 7.0 | 12.0 | 0.00 | 0.00 | 0.00 | 100 | |
| 20260906031936 | 45 | 260 | 6.0 | 9.0 | 0.00 | 0.00 | 0.00 | 100 | |
| 20260906031736 | 45 | 292 | 6.0 | 11.0 | 0.00 | 0.00 | 0.00 | 100 | |
| 20260906031534 | 45 | 297 | 5.0 | 10.0 | 0.00 | 0.00 | 0.00 | 100 | |
| 20260906031334 | 45 | 308 | 6.0 | 14.0 | 0.00 | 0.00 | 0.00 | 100 | |
| 20260906031134 | 45 | 328 | 7.0 | 12.0 | 0.00 | 0.00 | 0.00 | 100 | |
| 20260906030934 | 45 | 253 | 6.0 | 13.0 | 0.00 | 0.00 | 0.00 | 100 | |
| 20260906030734 | 45 | 245 | 7.0 | 12.0 | 0.00 | 0.00 | 0.00 | 100 | |
| 20260906030534 | 45 | 244 | 7.0 | 12.0 | 0.00 | 0.00 | 0.00 | 100 | |
| 20260906030337 | 45 | 262 | 7.0 | 12.0 | 0.00 | 0.00 | 0.00 | 100 | |
| 20260906030133 | 45 | 275 | 9.0 | 19.0 | 0.00 | 0.00 | 0.00 | 100 | |
| 20260906025933 | 45 | 241 | 8.0 | 14.0 | 0.00 | 0.00 | 0.00 | 100 | |
| 20260906025733 | 45 | 276 | 8.0 | 13.0 | 0.00 | 0.00 | 0.00 | 100 | |
| 20260906025532 | 45 | 314 | 6.0 | 10.0 | 0.00 | 0.00 | 0.00 | 100 | |
| 20260906025332 | 45 | 249 | 6.0 | 10.0 | 0.00 | 0.00 | 0.00 | 100 | |
| 20260906025132 | 46 | 277 | 7.0 | 13.0 | 0.00 | 0.00 | 0.00 | 100 | |
| 20260906024932 | 46 | 223 | 8.0 | 14.0 | 0.00 | 0.00 | 0.00 | 100 | |
| 20260906024732 | 46 | 228 | 6.0 | 10.0 | 0.00 | 0.00 | 0.00 | 100 | |
| 20260906024532 | 46 | 236 | 6.0 | 10.0 | 0.00 | 0.00 | 0.00 | 100 | |
| 20260906024331 | 46 | 258 | 5.0 | 9.0 | 0.00 | 0.00 | 0.00 | 100 | |
| 20260906024131 | 46 | 262 | 7.0 | 12.0 | 0.00 | 0.00 | 0.00 | 100 | |
| 20260906023931 | 46 | 262 | 6.0 | 12.0 | 0.00 | 0.00 | 0.00 | 100 | |
| 20260906023731 | 46 | 258 | 7.0 | 16.0 | 0.00 | 0.00 | 0.00 | 100 | |
| 20260906023529 | 46 | 245 | 5.0 | 10.0 | 0.00 | 0.00 | 0.00 | 100 | |
| 20260906023329 | 46 | 242 | 6.0 | 11.0 | 0.00 | 0.00 | 0.00 | 100 | |
| 20260906023129 | 46 | 183 | 8.0 | 16.0 | 0.00 | 0.00 | 0.00 | 100 | |
| 20260906022929 | 46 | 209 | 8.0 | 14.0 | 0.00 | 0.00 | 0.00 | 100 | |
| 20260906022729 | 46 | 275 | 8.0 | 14.0 | 0.00 | 0.00 | 0.00 | 100 | |
| 20260906022529 | 46 | 246 | 5.0 | 11.0 | 0.00 | 0.00 | 0.00 | 100 | |
| 20260906022329 | 46 | 236 | 6.0 | 11.0 | 0.00 | 0.00 | 0.00 | 100 | |
| 20260906022129 | 46 | 277 | 7.0 | 14.0 | 0.00 | 0.00 | 0.00 | 100 | |
| 20260906021929 | 46 | 245 | 7.0 | 14.0 | 0.00 | 0.00 | 0.00 | 100 | |
| 20260906021729 | 46 | 225 | 6.0 | 13.0 | 0.00 | 0.00 | 0.00 | 100 | |
| 20260906021527 | 46 | 224 | 6.0 | 13.0 | 0.00 | 0.00 | 0.00 | 100 | |
| 20260906021327 | 46 | 249 | 7.0 | 12.0 | 0.00 | 0.00 | 0.00 | 100 | |
| 20260906021127 | 46 | 257 | 6.0 | 10.0 | 0.00 | 0.00 | 0.00 | 100 | |
| 20260906020927 | 46 | 255 | 6.0 | 15.0 | 0.00 | 0.00 | 0.00 | 100 | |
| 20260906020727 | 46 | 250 | 7.0 | 16.0 | 0.00 | 0.00 | 0.00 | 100 | |
| 20260906020518 | 46 | 241 | 8.0 | 12.0 | 0.00 | 0.00 | 0.00 | 100 | |
| 20260906020318 | 46 | 265 | 7.0 | 12.0 | 0.00 | 0.00 | 0.00 | 100 | |
| 20260906020118 | 46 | 275 | 6.0 | 12.0 | 0.00 | 0.00 | 0.00 | 100 | |
| 20260906015918 | 46 | 211 | 7.0 | 12.0 | 0.00 | 0.00 | 0.00 | 100 | |
| 20260906015718 | 47 | 236 | 8.0 | 13.0 | 0.00 | 0.00 | 0.00 | 100 | |
| 20260906015516 | 47 | 241 | 9.0 | 14.0 | 0.00 | 0.00 | 0.00 | 100 | |
| 20260906015316 | 47 | 245 | 8.0 | 16.0 | 0.00 | 0.00 | 0.00 | 100 | |
| 20260906015116 | 47 | 223 | 8.0 | 13.0 | 0.00 | 0.00 | 0.00 | 100 | |
| 20260906014915 | 47 | 216 | 9.0 | 18.0 | 0.00 | 0.00 | 0.00 | 100 | |
| 20260906014715 | 47 | 229 | 8.0 | 18.0 | 0.00 | 0.00 | 0.00 | 100 | |
| 20260906014515 | 47 | 258 | 9.0 | 14.0 | 0.00 | 0.00 | 0.00 | 100 | |
| 20260906014315 | 47 | 280 | 9.0 | 15.0 | 0.00 | 0.00 | 0.00 | 100 | |
| 20260906014115 | 47 | 278 | 8.0 | 16.0 | 0.00 | 0.00 | 0.00 | 100 | |
| 20260906013915 | 47 | 264 | 8.0 | 16.0 | 0.00 | 0.00 | 0.00 | 100 | |
| 20260906013716 | 47 | 253 | 6.0 | 13.0 | 0.00 | 0.00 | 0.00 | 100 | |
| 20260906013514 | 47 | 248 | 7.0 | 12.0 | 0.00 | 0.00 | 0.00 | 100 | |
| 20260906013314 | 47 | 244 | 7.0 | 16.0 | 0.00 | 0.00 | 0.00 | 100 | |
| 20260906013114 | 47 | 224 | 7.0 | 16.0 | 0.00 | 0.00 | 0.00 | 100 | |
| 20260906012914 | 47 | 230 | 8.0 | 12.0 | 0.00 | 0.00 | 0.00 | 100 | |
| 20260906012713 | 47 | 277 | 6.0 | 11.0 | 0.00 | 0.00 | 0.00 | 100 | |
| 20260906012513 | 47 | 241 | 5.0 | 11.0 | 0.00 | 0.00 | 0.00 | 100 | |
| 20260906012313 | 47 | 236 | 7.0 | 12.0 | 0.00 | 0.00 | 0.00 | 100 | |
| 20260906012113 | 46 | 260 | 6.0 | 11.0 | 0.00 | 0.00 | 0.00 | 100 | |
| 20260906011913 | 46 | 275 | 6.0 | 10.0 | 0.00 | 0.00 | 0.00 | 100 | |
| 20260906011713 | 46 | 255 | 6.0 | 9.0 | 0.00 | 0.00 | 0.00 | 100 | |
| 20260906011511 | 46 | 242 | 7.0 | 9.0 | 0.00 | 0.00 | 0.00 | 100 | |
| 20260906011311 | 46 | 227 | 7.0 | 10.0 | 0.00 | 0.00 | 0.00 | 100 | |
| 20260906011111 | 46 | 228 | 7.0 | 10.0 | 0.00 | 0.00 | 0.00 | 100 | |
| 20260906010911 | 46 | 269 | 7.0 | 10.0 | 0.00 | 0.00 | 0.00 | 100 | |
| 20260906010711 | 46 | 277 | 7.0 | 10.0 | 0.00 | 0.00 | 0.00 | 100 | |
| 20260906010511 | 46 | 260 | 6.0 | 14.0 | 0.00 | 0.00 | 0.00 | 100 | |
| 20260906010311 | 46 | 264 | 7.0 | 12.0 | 0.00 | 0.00 | 0.00 | 100 | |
| 20260906010111 | 46 | 218 | 7.0 | 10.0 | 0.00 | 0.00 | 0.00 | 100 | |
| 20260906005911 | 46 | 198 | 5.0 | 8.0 | 0.00 | 0.00 | 0.00 | 100 | |
| 20260906005711 | 46 | 275 | 6.0 | 12.0 | 0.00 | 0.00 | 0.00 | 100 | |
| 20260906005509 | 46 | 295 | 4.0 | 12.0 | 0.00 | 0.00 | 0.00 | 100 | |
| 20260906005309 | 46 | 220 | 4.0 | 9.0 | 0.00 | 0.00 | 0.00 | 100 | |
| 20260906005109 | 46 | 259 | 4.0 | 8.0 | 0.00 | 0.00 | 0.00 | 100 | |
| 20260906004909 | 46 | 276 | 6.0 | 12.0 | 0.00 | 0.00 | 0.00 | 100 | |
| 20260906004709 | 46 | 282 | 5.0 | 10.0 | 0.00 | 0.00 | 0.00 | 100 | |
| 20260906004508 | 46 | 258 | 4.0 | 10.0 | 0.00 | 0.00 | 0.00 | 100 | |
| 20260906004308 | 46 | 309 | 2.0 | 6.0 | 0.00 | 0.00 | 0.00 | 100 | |
| 20260906004108 | 46 | 263 | 5.0 | 19.0 | 0.00 | 0.00 | 0.00 | 100 | |
| 20260906003908 | 46 | 254 | 6.0 | 19.0 | 0.00 | 0.00 | 0.00 | 100 | |
| 20260906003708 | 46 | 258 | 6.0 | 12.0 | 0.00 | 0.00 | 0.00 | 100 | |
| 20260906003506 | 46 | 259 | 6.0 | 14.0 | 0.00 | 0.00 | 0.00 | 100 | |
| 20260906003306 | 46 | 269 | 8.0 | 14.0 | 0.00 | 0.00 | 0.00 | 100 | |
| 20260906003106 | 46 | 250 | 9.0 | 14.0 | 0.00 | 0.00 | 0.00 | 100 | |
| 20260906002906 | 46 | 248 | 8.0 | 13.0 | 0.00 | 0.00 | 0.00 | 100 | |
| 20260906002707 | 46 | 258 | 7.0 | 14.0 | 0.00 | 0.00 | 0.00 | 100 | |
| 20260906002506 | 46 | 273 | 7.0 | 15.0 | 0.00 | 0.00 | 0.00 | 100 | |
| 20260906002306 | 46 | 254 | 7.0 | 13.0 | 0.00 | 0.00 | 0.00 | 100 | |
| 20260906002106 | 46 | 245 | 7.0 | 13.0 | 0.00 | 0.00 | 0.00 | 100 | |
| 20260906001906 | 46 | 251 | 9.0 | 15.0 | 0.00 | 0.00 | 0.00 | 100 | |
| 20260906001706 | 46 | 272 | 8.0 | 15.0 | 0.00 | 0.00 | 0.00 | 100 | |
| 20260906001504 | 46 | 262 | 7.0 | 13.0 | 0.00 | 0.00 | 0.00 | 100 | |
| 20260906001304 | 46 | 255 | 6.0 | 11.0 | 0.00 | 0.00 | 0.00 | 100 | |
| 20260906001104 | 46 | 259 | 6.0 | 14.0 | 0.00 | 0.00 | 0.00 | 100 | |
| 20260906000904 | 46 | 270 | 8.0 | 21.0 | 0.00 | 0.00 | 0.00 | 100 | |
| 20260906000704 | 46 | 253 | 8.0 | 16.0 | 0.00 | 0.00 | 0.00 | 100 | |
| 20260906000504 | 46 | 265 | 9.0 | 16.0 | 0.00 | 0.00 | 0.00 | 100 | |
| 20260906000304 | 46 | 200 | 7.0 | 15.0 | 0.00 | 0.00 | 0.00 | 100 | |
| 20260906000103 | 46 | 234 | 7.0 | 15.0 | 0.00 | 0.00 | 0.00 | 100 | |
| 20260905235904 | 46 | 224 | 7.0 | 13.0 | 0.00 | 0.00 | 0.00 | 100 | |
| 20260905235704 | 46 | 279 | 7.0 | 13.0 | 0.00 | 0.00 | 0.00 | 100 | |
| 20260905235502 | 46 | 272 | 8.0 | 11.0 | 0.00 | 0.00 | 0.00 | 100 | |
| 20260905235306 | 46 | 270 | 7.0 | 10.0 | 0.00 | 0.00 | 0.00 | 100 | |
| 20260905235102 | 46 | 272 | 6.0 | 13.0 | 0.00 | 0.00 | 0.00 | 100 | |
| 20260905234902 | 46 | 255 | 6.0 | 13.0 | 0.00 | 0.00 | 0.00 | 100 | |
| 20260905234702 | 46 | 252 | 7.0 | 13.0 | 0.00 | 0.00 | 0.00 | 100 | |
| 20260905234502 | 46 | 257 | 7.0 | 12.0 | 0.00 | 0.00 | 0.00 | 100 | |
| 20260905234302 | 46 | 222 | 7.0 | 10.0 | 0.00 | 0.00 | 0.00 | 100 | |
| 20260905234102 | 46 | 222 | 5.0 | 9.0 | 0.00 | 0.00 | 0.00 | 100 | |
| 20260905233902 | 46 | 271 | 6.0 | 14.0 | 0.00 | 0.00 | 0.00 | 100 | |
| 20260905233702 | 46 | 254 | 6.0 | 10.0 | 0.00 | 0.00 | 0.00 | 100 | |
| 20260905233500 | 46 | 224 | 8.0 | 13.0 | 0.00 | 0.00 | 0.00 | 100 | |
| 20260905233258 | 46 | 248 | 7.0 | 11.0 | 0.00 | 0.00 | 0.00 | 100 | |
| 20260905233058 | 46 | 254 | 6.0 | 10.0 | 0.00 | 0.00 | 0.00 | 100 | |
| 20260905232850 | 46 | 235 | 6.0 | 10.0 | 0.00 | 0.00 | 0.00 | 100 | |
| 20260905232651 | 46 | 244 | 6.0 | 13.0 | 0.00 | 0.00 | 0.00 | 100 | |
| 20260905232450 | 46 | 250 | 6.0 | 10.0 | 0.00 | 0.00 | 0.00 | 100 | |
| 20260905232250 | 46 | 251 | 6.0 | 12.0 | 0.00 | 0.00 | 0.00 | 100 | |
| 20260905232050 | 46 | 267 | 7.0 | 12.0 | 0.00 | 0.00 | 0.00 | 100 | |
| 20260905231850 | 46 | 234 | 8.0 | 12.0 | 0.00 | 0.00 | 0.00 | 100 | |
| 20260905231650 | 46 | 256 | 8.0 | 12.0 | 0.00 | 0.00 | 0.00 | 100 | |
| 20260905231449 | 46 | 244 | 6.0 | 13.0 | 0.00 | 0.00 | 0.00 | 100 | |
| 20260905231249 | 46 | 252 | 7.0 | 13.0 | 0.00 | 0.00 | 0.00 | 100 | |
| 20260905231049 | 46 | 275 | 6.0 | 10.0 | 0.00 | 0.00 | 0.00 | 100 | |
| 20260905230848 | 46 | 214 | 7.0 | 12.0 | 0.00 | 0.00 | 0.00 | 100 | |
| 20260905230648 | 46 | 235 | 6.0 | 12.0 | 0.00 | 0.00 | 0.00 | 100 | |
| 20260905230448 | 47 | 247 | 6.0 | 10.0 | 0.00 | 0.00 | 0.00 | 100 | |
| 20260905230248 | 47 | 267 | 8.0 | 14.0 | 0.00 | 0.00 | 0.00 | 100 | |
| 20260905230048 | 47 | 230 | 8.0 | 14.0 | 0.00 | 0.00 | 0.00 | 100 | |
| 20260905225848 | 47 | 248 | 7.0 | 14.0 | 0.00 | 0.00 | 0.00 | 100 | |
| 20260905225648 | 48 | 286 | 8.0 | 15.0 | 0.00 | 0.00 | 0.00 | 100 | |
| 20260905225446 | 48 | 255 | 7.0 | 13.0 | 0.00 | 0.00 | 0.00 | 100 | |
| 20260905225246 | 48 | 270 | 6.0 | 13.0 | 0.00 | 0.00 | 0.00 | 100 | |
| 20260905225046 | 48 | 353 | 4.0 | 9.0 | 0.00 | 0.00 | 0.00 | 100 | |
| 20260905224845 | 48 | 249 | 5.0 | 14.0 | 0.00 | 0.00 | 0.00 | 100 | |
| 20260905224645 | 48 | 282 | 6.0 | 14.0 | 0.00 | 0.00 | 0.00 | 100 | |
| 20260905224445 | 48 | 293 | 4.0 | 7.0 | 0.00 | 0.00 | 0.00 | 100 | |
| 20260905224246 | 48 | 279 | 4.0 | 8.0 | 0.00 | 0.00 | 0.00 | 100 | |
| 20260905224046 | 48 | 255 | 5.0 | 10.0 | 0.00 | 0.00 | 0.00 | 100 | |
| 20260905223846 | 48 | 295 | 3.0 | 8.0 | 0.00 | 0.00 | 0.00 | 100 | |
| 20260905223646 | 48 | 32 | 3.0 | 7.0 | 0.00 | 0.00 | 0.00 | 100 | |
| 20260905223444 | 48 | 36 | 4.0 | 8.0 | 0.00 | 0.00 | 0.00 | 100 | |
| 20260905223244 | 48 | 352 | 5.0 | 10.0 | 0.00 | 0.00 | 0.00 | 100 | |
| 20260905223044 | 48 | 320 | 4.0 | 10.0 | 0.00 | 0.00 | 0.00 | 100 | |
| 20260905222844 | 48 | 357 | 6.0 | 10.0 | 0.00 | 0.00 | 0.00 | 100 | |
| 20260905222643 | 48 | 354 | 6.0 | 10.0 | 0.00 | 0.00 | 0.00 | 100 | |
| 20260905222443 | 48 | 329 | 6.0 | 11.0 | 0.00 | 0.00 | 0.00 | 100 | |
| 20260905222243 | 48 | 334 | 5.0 | 11.0 | 0.00 | 0.00 | 0.00 | 100 | |
| 20260905222043 | 48 | 349 | 5.0 | 9.0 | 0.00 | 0.00 | 0.00 | 100 | |
| 20260905221843 | 48 | 339 | 9.0 | 20.0 | 0.00 | 0.00 | 0.00 | 100 | |
| 20260905221643 | 48 | 323 | 6.0 | 11.0 | 0.00 | 0.00 | 0.00 | 100 | |
| 20260905221441 | 48 | 337 | 6.0 | 10.0 | 0.00 | 0.00 | 0.00 | 100 | |
| 20260905221241 | 48 | 35 | 6.0 | 13.0 | 0.00 | 0.00 | 0.00 | 100 | |
| 20260905221041 | 48 | 37 | 9.0 | 16.0 | 0.00 | 0.00 | 0.00 | 100 | |
| 20260905220841 | 48 | 22 | 7.0 | 13.0 | 0.00 | 0.00 | 0.00 | 100 | |
| 20260905220641 | 48 | 16 | 7.0 | 14.0 | 0.00 | 0.00 | 0.00 | 100 | |
| 20260905220441 | 49 | 15 | 8.0 | 16.0 | 0.00 | 0.00 | 0.00 | 100 | |
| 20260905220241 | 49 | 23 | 8.0 | 16.0 | 0.00 | 0.00 | 0.00 | 100 | |
| 20260905220041 | 49 | 7 | 8.0 | 14.0 | 0.00 | 0.00 | 0.00 | 100 | |
| 20260905215841 | 49 | 23 | 7.0 | 12.0 | 0.00 | 0.00 | 0.00 | 100 | |
| 20260905215641 | 49 | 10 | 8.0 | 12.0 | 0.00 | 0.00 | 0.00 | 100 | |
| 20260905215439 | 49 | 4 | 9.0 | 15.0 | 0.00 | 0.00 | 0.00 | 100 | |
| 20260905215239 | 50 | 6 | 8.0 | 11.0 | 0.00 | 0.00 | 0.00 | 100 | |
| 20260905215039 | 50 | 22 | 9.0 | 13.0 | 0.00 | 0.00 | 0.00 | 100 | |
| 20260905214839 | 50 | 42 | 10.0 | 22.0 | 0.00 | 0.00 | 0.00 | 100 | |
| 20260905214639 | 51 | 27 | 8.0 | 22.0 | 0.00 | 0.00 | 0.00 | 100 | |
| 20260905214438 | 51 | 38 | 11.0 | 27.0 | 0.00 | 0.00 | 0.00 | 100 | |
| 20260905214238 | 51 | 29 | 12.0 | 27.0 | 0.00 | 0.00 | 0.00 | 100 | |
| 20260905214038 | 52 | 16 | 8.0 | 14.0 | 0.00 | 0.00 | 0.00 | 100 | |
| 20260905213838 | 52 | 350 | 7.0 | 13.0 | 0.00 | 0.00 | 0.00 | 100 | |
| 20260905213638 | 53 | 350 | 8.0 | 14.0 | 0.00 | 0.00 | 0.00 | 100 | |
| 20260905213437 | 53 | 186 | 7.0 | 15.0 | 0.00 | 0.00 | 0.00 | 100 | |
| 20260905213237 | 53 | 217 | 5.0 | 13.0 | 0.00 | 0.00 | 0.00 | 100 | |
| 20260905213037 | 53 | 200 | 8.0 | 18.0 | 0.00 | 0.00 | 0.00 | 100 | |
| 20260905212837 | 53 | 247 | 8.0 | 18.0 | 0.00 | 0.00 | 0.00 | 100 | |
| 20260905212637 | 53 | 259 | 7.0 | 14.0 | 0.00 | 0.00 | 0.00 | 100 | |
| 20260905212436 | 53 | 254 | 7.0 | 21.0 | 0.00 | 0.00 | 0.00 | 100 | |
| 20260905212236 | 53 | 217 | 8.0 | 15.0 | 0.00 | 0.00 | 0.00 | 100 | |
| 20260905212036 | 53 | 242 | 9.0 | 16.0 | 0.00 | 0.00 | 0.00 | 100 | |
| 20260905211836 | 53 | 263 | 8.0 | 15.0 | 0.00 | 0.00 | 0.00 | 100 | |
| 20260905211636 | 53 | 248 | 9.0 | 19.0 | 0.00 | 0.00 | 0.00 | 100 | |
| 20260905211434 | 53 | 251 | 10.0 | 19.0 | 0.00 | 0.00 | 0.00 | 100 | |
| 20260905211234 | 53 | 242 | 9.0 | 16.0 | 0.00 | 0.00 | 0.00 | 100 | |
| 20260905211034 | 53 | 246 | 6.0 | 16.0 | 0.00 | 0.00 | 0.00 | 100 | |
| 20260905210834 | 53 | 219 | 7.0 | 13.0 | 0.00 | 0.00 | 0.00 | 100 | |
| 20260905210634 | 53 | 225 | 9.0 | 16.0 | 0.00 | 0.00 | 0.00 | 100 | |
| 20260905210434 | 53 | 204 | 7.0 | 16.0 | 0.00 | 0.00 | 0.00 | 100 | |
| 20260905210234 | 53 | 251 | 8.0 | 17.0 | 0.00 | 0.00 | 0.00 | 100 | |
| 20260905210034 | 53 | 254 | 10.0 | 18.0 | 0.00 | 0.00 | 0.00 | 100 | |
| 20260905205834 | 53 | 245 | 10.0 | 15.0 | 0.00 | 0.00 | 0.00 | 100 | |
| 20260905205634 | 53 | 232 | 11.0 | 17.0 | 0.00 | 0.00 | 0.00 | 100 | |
| 20260905205423 | 53 | 214 | 10.0 | 20.0 | 0.00 | 0.00 | 0.00 | 100 | |
| 20260905205223 | 53 | 224 | 8.0 | 17.0 | 0.00 | 0.00 | 0.00 | 100 | |
| 20260905205023 | 53 | 241 | 7.0 | 13.0 | 0.00 | 0.00 | 0.00 | 100 | |
| 20260905204823 | 53 | 201 | 10.0 | 15.0 | 0.00 | 0.00 | 0.00 | 100 | |
| 20260905204623 | 53 | 189 | 10.0 | 18.0 | 0.00 | 0.00 | 0.00 | 100 | |
| 20260905204423 | 53 | 208 | 10.0 | 16.0 | 0.00 | 0.00 | 0.00 | 100 | |
| 20260905204223 | 53 | 206 | 10.0 | 16.0 | 0.00 | 0.00 | 0.00 | 100 | |
| 20260905204023 | 53 | 220 | 9.0 | 14.0 | 0.00 | 0.00 | 0.00 | 100 | |
| 20260905203823 | 53 | 258 | 9.0 | 18.0 | 0.00 | 0.00 | 0.00 | 100 | |
| 20260905203623 | 53 | 239 | 10.0 | 18.0 | 0.00 | 0.00 | 0.00 | 100 | |
| 20260905203421 | 53 | 232 | 8.0 | 15.0 | 0.00 | 0.00 | 0.00 | 100 | |
| 20260905203221 | 53 | 218 | 9.0 | 16.0 | 0.00 | 0.00 | 0.00 | 100 | |
| 20260905203020 | 53 | 219 | 10.0 | 19.0 | 0.00 | 0.00 | 0.00 | 100 | |
| 20260905202820 | 53 | 227 | 12.0 | 22.0 | 0.00 | 0.00 | 0.00 | 100 | |
| 20260905202620 | 53 | 241 | 9.0 | 20.0 | 0.00 | 0.00 | 0.00 | 100 | |
| 20260905202421 | 53 | 244 | 10.0 | 19.0 | 0.00 | 0.00 | 0.00 | 100 | |
| 20260905202220 | 53 | 210 | 10.0 | 21.0 | 0.00 | 0.00 | 0.00 | 100 | |
| 20260905202020 | 53 | 198 | 8.0 | 15.0 | 0.00 | 0.00 | 0.00 | 100 | |
| 20260905201820 | 53 | 240 | 9.0 | 16.0 | 0.00 | 0.00 | 0.00 | 100 | |
| 20260905201620 | 53 | 240 | 10.0 | 23.0 | 0.00 | 0.00 | 0.00 | 100 | |
| 20260905201418 | 53 | 215 | 10.0 | 23.0 | 0.00 | 0.00 | 0.00 | 100 | |
| 20260905201218 | 53 | 215 | 8.0 | 16.0 | 0.00 | 0.00 | 0.00 | 100 | |
| 20260905201018 | 53 | 230 | 9.0 | 14.0 | 0.00 | 0.00 | 0.00 | 100 | |
| 20260905200818 | 53 | 199 | 8.0 | 14.0 | 0.00 | 0.00 | 0.00 | 100 | |
| 20260905200619 | 53 | 222 | 10.0 | 16.0 | 0.00 | 0.00 | 0.00 | 100 | |
| 20260905200418 | 53 | 225 | 10.0 | 16.0 | 0.00 | 0.00 | 0.00 | 100 | |
| 20260905200218 | 53 | 240 | 7.0 | 12.0 | 0.00 | 0.00 | 0.00 | 100 | |
| 20260905200018 | 53 | 244 | 8.0 | 15.0 | 0.00 | 0.00 | 0.00 | 100 | |
| 20260905195818 | 53 | 246 | 7.0 | 15.0 | 0.00 | 0.00 | 0.00 | 100 | |
| 20260905195619 | 53 | 246 | 7.0 | 13.0 | 0.00 | 0.00 | 0.00 | 100 | |
| 20260905195417 | 53 | 209 | 6.0 | 10.0 | 0.00 | 0.00 | 0.00 | 100 | |
| 20260905195217 | 54 | 219 | 8.0 | 11.0 | 0.00 | 0.00 | 0.00 | 100 | |
| 20260905195017 | 54 | 214 | 8.0 | 14.0 | 0.00 | 0.00 | 0.00 | 100 | |
| 20260905194817 | 54 | 212 | 9.0 | 18.0 | 0.00 | 0.00 | 0.00 | 100 | |
| 20260905194617 | 54 | 247 | 9.0 | 18.0 | 0.00 | 0.00 | 0.00 | 100 | |
| 20260905194417 | 54 | 259 | 8.0 | 15.0 | 0.00 | 0.00 | 0.00 | 100 | |
| 20260905194217 | 54 | 192 | 9.0 | 16.0 | 0.00 | 0.00 | 0.00 | 100 | |
| 20260905194017 | 54 | 215 | 10.0 | 20.0 | 0.00 | 0.00 | 0.00 | 100 | |
| 20260905193817 | 54 | 259 | 11.0 | 17.0 | 0.00 | 0.00 | 0.00 | 100 | |
| 20260905193617 | 54 | 255 | 10.0 | 25.0 | 0.00 | 0.00 | 0.00 | 100 | |
| 20260905193415 | 54 | 228 | 9.0 | 16.0 | 0.00 | 0.00 | 0.00 | 100 | |
| 20260905193215 | 54 | 234 | 8.0 | 14.0 | 0.00 | 0.00 | 0.00 | 100 | |
| 20260905193015 | 54 | 242 | 9.0 | 14.0 | 0.00 | 0.00 | 0.00 | 100 | |
| 20260905192815 | 54 | 220 | 11.0 | 19.0 | 0.00 | 0.00 | 0.00 | 100 | |
| 20260905192615 | 54 | 224 | 10.0 | 19.0 | 0.00 | 0.00 | 0.00 | 100 | |
| 20260905192413 | 54 | 245 | 10.0 | 17.0 | 0.00 | 0.00 | 0.00 | 100 | |
| 20260905192213 | 54 | 253 | 10.0 | 18.0 | 0.00 | 0.00 | 0.00 | 100 | |
| 20260905192013 | 54 | 249 | 11.0 | 18.0 | 0.00 | 0.00 | 0.00 | 100 | |
| 20260905191813 | 54 | 244 | 9.0 | 14.0 | 0.00 | 0.00 | 0.00 | 100 | |
| 20260905191613 | 54 | 198 | 9.0 | 15.0 | 0.00 | 0.00 | 0.00 | 100 | |
| 20260905191411 | 54 | 195 | 8.0 | 15.0 | 0.00 | 0.00 | 0.00 | 100 | |
| 20260905191211 | 54 | 232 | 9.0 | 17.0 | 0.00 | 0.00 | 0.00 | 100 | |
| 20260905191011 | 54 | 247 | 8.0 | 14.0 | 0.00 | 0.00 | 0.00 | 100 | |
| 20260905190811 | 54 | 216 | 10.0 | 18.0 | 0.00 | 0.00 | 0.00 | 100 | |
| 20260905190611 | 54 | 166 | 11.0 | 19.0 | 0.00 | 0.00 | 0.00 | 100 | |
| 20260905190411 | 54 | 180 | 10.0 | 13.0 | 0.00 | 0.00 | 0.00 | 100 | |
| 20260905190211 | 54 | 175 | 11.0 | 21.0 | 0.00 | 0.00 | 0.00 | 100 | |
| 20260905190011 | 54 | 194 | 9.0 | 17.0 | 0.00 | 0.00 | 0.00 | 100 | |
| 20260905185811 | 54 | 194 | 9.0 | 15.0 | 0.00 | 0.00 | 0.00 | 100 | |
| 20260905185611 | 54 | 182 | 10.0 | 23.0 | 0.00 | 0.00 | 0.00 | 100 | |
| 20260905185409 | 54 | 189 | 11.0 | 17.0 | 0.00 | 0.00 | 0.00 | 100 | |
| 20260905185209 | 54 | 206 | 10.0 | 17.0 | 0.00 | 0.00 | 0.00 | 100 | |
| 20260905185009 | 54 | 195 | 9.0 | 14.0 | 0.00 | 0.00 | 0.00 | 100 | |
| 20260905184809 | 54 | 193 | 9.0 | 16.0 | 0.00 | 0.00 | 0.00 | 100 | |
| 20260905184609 | 54 | 192 | 8.0 | 13.0 | 0.00 | 0.00 | 0.00 | 100 | |
| 20260905184408 | 54 | 199 | 7.0 | 13.0 | 0.00 | 0.00 | 0.00 | 100 | |
| 20260905184208 | 54 | 153 | 10.0 | 14.0 | 0.00 | 0.00 | 0.00 | 100 | |
| 20260905184008 | 54 | 140 | 8.0 | 13.0 | 0.00 | 0.00 | 0.00 | 100 | |
| 20260905183809 | 54 | 187 | 8.0 | 14.0 | 0.00 | 0.00 | 0.00 | 100 | |
| 20260905183609 | 54 | 214 | 9.0 | 16.0 | 0.00 | 0.00 | 0.00 | 100 | |
| 20260905183407 | 54 | 248 | 9.0 | 16.0 | 0.00 | 0.00 | 0.00 | 100 | |
| 20260905183207 | 55 | 142 | 8.0 | 15.0 | 0.00 | 0.00 | 0.00 | 100 | |
| 20260905183007 | 55 | 123 | 8.0 | 17.0 | 0.00 | 0.00 | 0.00 | 100 | |
| 20260905182807 | 55 | 297 | 8.0 | 17.0 | 0.00 | 0.00 | 0.00 | 100 | |
| 20260905182607 | 55 | 138 | 7.0 | 15.0 | 0.00 | 0.00 | 0.00 | 100 | |
| 20260905182407 | 55 | 174 | 8.0 | 15.0 | 0.00 | 0.00 | 0.00 | 100 | |
| 20260905182209 | 55 | 147 | 8.0 | 11.0 | 0.00 | 0.00 | 0.00 | 100 | |
| 20260905182007 | 55 | 160 | 10.0 | 16.0 | 0.00 | 0.00 | 0.00 | 100 | |
| 20260905181759 | 55 | 197 | 10.0 | 17.0 | 0.00 | 0.00 | 0.00 | 100 | |
| 20260905181559 | 55 | 187 | 10.0 | 17.0 | 0.00 | 0.00 | 0.00 | 100 | |
| 20260905181358 | 55 | 151 | 10.0 | 16.0 | 0.00 | 0.00 | 0.00 | 100 | |
| 20260905181158 | 55 | 178 | 10.0 | 21.0 | 0.00 | 0.00 | 0.00 | 100 | |
| 20260905180958 | 55 | 212 | 10.0 | 21.0 | 0.00 | 0.00 | 0.00 | 100 | |
| 20260905180758 | 54 | 184 | 10.0 | 14.0 | 0.00 | 0.00 | 0.00 | 100 | |
| 20260905180558 | 54 | 156 | 10.0 | 17.0 | 0.00 | 0.00 | 0.00 | 100 | |
| 20260905180358 | 54 | 195 | 9.0 | 17.0 | 0.00 | 0.00 | 0.00 | 100 | |
| 20260905180157 | 54 | 169 | 10.0 | 16.0 | 0.00 | 0.00 | 0.00 | 100 | |
| 20260905175957 | 54 | 138 | 11.0 | 16.0 | 0.00 | 0.00 | 0.00 | 100 | |
| 20260905175757 | 54 | 171 | 10.0 | 14.0 | 0.00 | 0.00 | 0.00 | 100 | |
| 20260905175557 | 54 | 228 | 8.0 | 14.0 | 0.00 | 0.00 | 0.00 | 100 | |
| 20260905175355 | 54 | 176 | 9.0 | 14.0 | 0.00 | 0.00 | 0.00 | 100 | |
| 20260905175155 | 54 | 174 | 10.0 | 15.0 | 0.00 | 0.00 | 0.00 | 100 | |
| 20260905174955 | 54 | 152 | 10.0 | 16.0 | 0.00 | 0.00 | 0.00 | 100 | |
| 20260905174755 | 54 | 149 | 10.0 | 16.0 | 0.00 | 0.00 | 0.00 | 100 | |
| 20260905174600 | 54 | 165 | 12.0 | 16.0 | 0.00 | 0.00 | 0.00 | 100 | |
| 20260905174355 | 54 | 201 | 10.0 | 16.0 | 0.00 | 0.00 | 0.00 | 100 | |
| 20260905174155 | 54 | 202 | 10.0 | 16.0 | 0.00 | 0.00 | 0.00 | 100 | |
| 20260905173955 | 54 | 244 | 10.0 | 16.0 | 0.00 | 0.00 | 0.00 | 100 | |
| 20260905173755 | 55 | 63 | 9.0 | 17.0 | 0.00 | 0.00 | 0.00 | 100 | |
| 20260905173555 | 55 | 153 | 8.0 | 17.0 | 0.00 | 0.00 | 0.00 | 100 | |
| 20260905173353 | 55 | 193 | 9.0 | 13.0 | 0.00 | 0.00 | 0.00 | 100 | |
| 20260905173153 | 55 | 180 | 11.0 | 18.0 | 0.00 | 0.00 | 0.00 | 100 | |
| 20260905172953 | 55 | 165 | 10.0 | 15.0 | 0.00 | 0.00 | 0.00 | 100 | |
| 20260905172753 | 55 | 191 | 10.0 | 15.0 | 0.00 | 0.00 | 0.00 | 100 | |
| 20260905172553 | 55 | 178 | 11.0 | 16.0 | 0.00 | 0.00 | 0.00 | 100 | |
| 20260905172353 | 55 | 173 | 10.0 | 14.0 | 0.00 | 0.00 | 0.00 | 100 | |
| 20260905172153 | 55 | 173 | 12.0 | 16.0 | 0.00 | 0.00 | 0.00 | 100 | |
| 20260905171952 | 55 | 170 | 12.0 | 16.0 | 0.00 | 0.00 | 0.00 | 100 | |
| 20260905171752 | 55 | 167 | 12.0 | 20.0 | 0.00 | 0.00 | 0.00 | 100 | |
| 20260905171552 | 55 | 167 | 10.0 | 20.0 | 0.00 | 0.00 | 0.00 | 100 | |
| 20260905171350 | 55 | 164 | 10.0 | 15.0 | 0.00 | 0.00 | 0.00 | 100 | |
| 20260905171150 | 55 | 135 | 10.0 | 17.0 | 0.00 | 0.00 | 0.00 | 100 | |
| 20260905170950 | 55 | 144 | 10.0 | 17.0 | 0.00 | 0.00 | 0.00 | 100 | |
| 20260905170750 | 55 | 179 | 9.0 | 15.0 | 0.00 | 0.00 | 0.00 | 100 | |
| 20260905170550 | 55 | 184 | 12.0 | 18.0 | 0.00 | 0.00 | 0.00 | 100 | |
| 20260905170351 | 55 | 165 | 11.0 | 17.0 | 0.00 | 0.00 | 0.00 | 100 | |
| 20260905170151 | 55 | 202 | 12.0 | 22.0 | 0.00 | 0.00 | 0.00 | 100 | |
| 20260905165951 | 56 | 190 | 9.0 | 22.0 | 0.00 | 0.00 | 0.00 | 100 | |
| 20260905165750 | 56 | 175 | 9.0 | 15.0 | 0.00 | 0.00 | 0.00 | 100 | |
| 20260905165550 | 56 | 178 | 10.0 | 16.0 | 0.00 | 0.00 | 0.00 | 100 | |
| 20260905165348 | 56 | 211 | 10.0 | 18.0 | 0.00 | 0.00 | 0.00 | 100 | |
| 20260905165148 | 56 | 191 | 11.0 | 18.0 | 0.00 | 0.00 | 0.00 | 100 | |
| 20260905164948 | 56 | 205 | 13.0 | 21.0 | 0.00 | 0.00 | 0.00 | 100 | |
| 20260905164748 | 57 | 193 | 10.0 | 18.0 | 0.00 | 0.00 | 0.00 | 100 | |
| 20260905164548 | 57 | 175 | 13.0 | 21.0 | 0.00 | 0.00 | 0.00 | 100 | |
| 20260905164348 | 57 | 178 | 14.0 | 21.0 | 0.00 | 0.00 | 0.00 | 100 | |
| 20260905164148 | 57 | 164 | 12.0 | 20.0 | 0.00 | 0.00 | 0.00 | 100 | |
| 20260905163948 | 57 | 159 | 13.0 | 20.0 | 0.00 | 0.00 | 0.00 | 100 | |
| 20260905163747 | 57 | 170 | 14.0 | 22.0 | 0.00 | 0.00 | 0.00 | 100 | |
| 20260905163547 | 57 | 182 | 14.0 | 22.0 | 0.00 | 0.00 | 0.00 | 100 | |
| 20260905163345 | 57 | 153 | 13.0 | 20.0 | 0.00 | 0.00 | 0.00 | 100 | |
| 20260905163146 | 57 | 146 | 14.0 | 27.0 | 0.00 | 0.00 | 0.00 | 100 | |
| 20260905162946 | 57 | 182 | 17.0 | 27.0 | 0.00 | 0.00 | 0.00 | 100 | |
| 20260905162746 | 57 | 173 | 12.0 | 22.0 | 0.00 | 0.00 | 0.00 | 100 | |
| 20260905162546 | 57 | 151 | 11.0 | 17.0 | 0.00 | 0.00 | 0.00 | 100 | |
| 20260905162346 | 58 | 170 | 12.0 | 20.0 | 0.00 | 0.00 | 0.00 | 100 | |
| 20260905162146 | 58 | 134 | 12.0 | 18.0 | 0.00 | 0.00 | 0.00 | 100 | |
| 20260905161946 | 58 | 159 | 15.0 | 25.0 | 0.00 | 0.00 | 0.00 | 100 | |
| 20260905161746 | 58 | 169 | 14.0 | 19.0 | 0.00 | 0.00 | 0.00 | 100 | |
| 20260905161545 | 58 | 171 | 14.0 | 24.0 | 0.00 | 0.00 | 0.00 | 100 | |
| 20260905161343 | 58 | 161 | 13.0 | 19.0 | 0.00 | 0.00 | 0.00 | 100 | |
| 20260905161143 | 58 | 169 | 12.0 | 16.0 | 0.00 | 0.00 | 0.00 | 100 | |
| 20260905160943 | 58 | 196 | 12.0 | 16.0 | 0.00 | 0.00 | 0.00 | 100 | |
| 20260905160743 | 58 | 162 | 10.0 | 15.0 | 0.00 | 0.00 | 0.00 | 100 | |
| 20260905160543 | 58 | 151 | 9.0 | 15.0 | 0.00 | 0.00 | 0.00 | 100 | |
| 20260905160343 | 58 | 161 | 11.0 | 18.0 | 0.00 | 0.00 | 0.00 | 100 | |
| 20260905160143 | 58 | 174 | 9.0 | 18.0 | 0.00 | 0.00 | 0.00 | 100 | |
| 20260905155943 | 58 | 180 | 10.0 | 16.0 | 0.00 | 0.00 | 0.00 | 100 | |
| 20260905155743 | 58 | 137 | 11.0 | 16.0 | 0.00 | 0.00 | 0.00 | 100 | |
| 20260905155543 | 58 | 158 | 12.0 | 24.0 | 0.00 | 0.00 | 0.00 | 100 | |
| 20260905155341 | 58 | 162 | 14.0 | 24.0 | 0.00 | 0.00 | 0.00 | 100 | |
| 20260905155141 | 58 | 195 | 11.0 | 18.0 | 0.00 | 0.00 | 0.00 | 100 | |
| 20260905154941 | 58 | 167 | 10.0 | 17.0 | 0.00 | 0.00 | 0.00 | 100 | |
| 20260905154741 | 58 | 139 | 12.0 | 18.0 | 0.00 | 0.00 | 0.00 | 100 | |
| 20260905154541 | 58 | 147 | 11.0 | 18.0 | 0.00 | 0.00 | 0.00 | 100 | |
| 20260905154332 | 58 | 180 | 13.0 | 20.0 | 0.00 | 0.00 | 0.00 | 100 | |
| 20260905154132 | 58 | 227 | 13.0 | 20.0 | 0.00 | 0.00 | 0.00 | 100 | |
| 20260905153932 | 58 | 187 | 13.0 | 20.0 | 0.00 | 0.00 | 0.00 | 100 | |
| 20260905153732 | 59 | 170 | 14.0 | 17.0 | 0.00 | 0.00 | 0.00 | 100 | |
| 20260905153532 | 59 | 149 | 12.0 | 22.0 | 0.00 | 0.00 | 0.00 | 100 | |
| 20260905153330 | 59 | 144 | 12.0 | 22.0 | 0.00 | 0.00 | 0.00 | 100 | |
| 20260905153130 | 59 | 167 | 12.0 | 18.0 | 0.00 | 0.00 | 0.00 | 100 | |
| 20260905152930 | 59 | 154 | 11.0 | 20.0 | 0.00 | 0.00 | 0.00 | 100 | |
| 20260905152730 | 59 | 143 | 12.0 | 20.0 | 0.00 | 0.00 | 0.00 | 100 | |
| 20260905152530 | 59 | 147 | 13.0 | 19.0 | 0.00 | 0.00 | 0.00 | 100 | |
| 20260905152330 | 59 | 135 | 12.0 | 19.0 | 0.00 | 0.00 | 0.00 | 100 | |
| 20260905152130 | 59 | 187 | 10.0 | 18.0 | 0.00 | 0.00 | 0.00 | 100 | |
| 20260905151930 | 59 | 150 | 8.0 | 18.0 | 0.00 | 0.00 | 0.00 | 100 | |
| 20260905151730 | 59 | 125 | 10.0 | 16.0 | 0.00 | 0.00 | 0.00 | 100 | |
| 20260905151530 | 59 | 157 | 10.0 | 18.0 | 0.00 | 0.00 | 0.00 | 100 | |
| 20260905151328 | 59 | 157 | 9.0 | 15.0 | 0.00 | 0.00 | 0.00 | 100 | |
| 20260905151126 | 59 | 153 | 9.0 | 16.0 | 0.00 | 0.00 | 0.00 | 100 | |
| 20260905150926 | 59 | 163 | 10.0 | 18.0 | 0.00 | 0.00 | 0.00 | 100 | |
| 20260905150726 | 59 | 182 | 14.0 | 21.0 | 0.00 | 0.00 | 0.00 | 100 | |
| 20260905150526 | 59 | 140 | 11.0 | 20.0 | 0.00 | 0.00 | 0.00 | 100 | |
| 20260905150326 | 59 | 177 | 11.0 | 15.0 | 0.00 | 0.00 | 0.00 | 100 | |
| 20260905150126 | 59 | 157 | 12.0 | 24.0 | 0.00 | 0.00 | 0.00 | 100 | |
| 20260905145926 | 59 | 174 | 14.0 | 24.0 | 0.00 | 0.00 | 0.00 | 100 | |
| 20260905145726 | 59 | 178 | 12.0 | 20.0 | 0.00 | 0.00 | 0.00 | 100 | |
| 20260905145526 | 59 | 151 | 10.0 | 20.0 | 0.00 | 0.00 | 0.00 | 100 | |
| 20260905145324 | 59 | 127 | 10.0 | 16.0 | 0.00 | 0.00 | 0.00 | 100 | |
| 20260905145124 | 59 | 143 | 10.0 | 13.0 | 0.00 | 0.00 | 0.00 | 100 | |
| 20260905144924 | 59 | 147 | 8.0 | 13.0 | 0.00 | 0.00 | 0.00 | 100 | |
| 20260905144724 | 59 | 157 | 10.0 | 21.0 | 0.00 | 0.00 | 0.00 | 100 | |
| 20260905144524 | 59 | 188 | 12.0 | 21.0 | 0.00 | 0.00 | 0.00 | 100 | |
| 20260905144324 | 59 | 163 | 10.0 | 20.0 | 0.00 | 0.00 | 0.00 | 100 | |
| 20260905144124 | 59 | 173 | 11.0 | 20.0 | 0.00 | 0.00 | 0.00 | 100 | |
| 20260905143923 | 59 | 146 | 10.0 | 16.0 | 0.00 | 0.00 | 0.00 | 100 | |
| 20260905143723 | 59 | 130 | 9.0 | 16.0 | 0.00 | 0.00 | 0.00 | 100 | |
| 20260905143523 | 59 | 124 | 11.0 | 17.0 | 0.00 | 0.00 | 0.00 | 100 | |
| 20260905143321 | 59 | 141 | 11.0 | 17.0 | 0.00 | 0.00 | 0.00 | 100 | |
| 20260905143121 | 59 | 151 | 11.0 | 17.0 | 0.00 | 0.00 | 0.00 | 100 | |
| 20260905142921 | 59 | 130 | 12.0 | 16.0 | 0.00 | 0.00 | 0.00 | 100 | |
| 20260905142721 | 58 | 123 | 10.0 | 15.0 | 0.00 | 0.00 | 0.00 | 100 | |
| 20260905142522 | 58 | 161 | 9.0 | 17.0 | 0.00 | 0.00 | 0.00 | 100 | |
| 20260905142322 | 58 | 159 | 9.0 | 15.0 | 0.00 | 0.00 | 0.00 | 100 | |
| 20260905142122 | 58 | 139 | 10.0 | 16.0 | 0.00 | 0.00 | 0.00 | 100 | |
| 20260905141921 | 57 | 174 | 12.0 | 16.0 | 0.00 | 0.00 | 0.00 | 100 | |
| 20260905141721 | 57 | 162 | 11.0 | 16.0 | 0.00 | 0.00 | 0.00 | 100 | |
| 20260905141521 | 57 | 139 | 11.0 | 20.0 | 0.00 | 0.00 | 0.00 | 100 | |
| 20260905141319 | 57 | 160 | 12.0 | 20.0 | 0.00 | 0.00 | 0.00 | 100 | |
| 20260905141119 | 57 | 159 | 12.0 | 19.0 | 0.00 | 0.00 | 0.00 | 100 | |
| 20260905140919 | 58 | 156 | 11.0 | 19.0 | 0.00 | 0.00 | 0.00 | 100 | |
| 20260905140719 | 58 | 171 | 10.0 | 15.0 | 0.00 | 0.00 | 0.00 | 100 | |
| 20260905140519 | 59 | 184 | 11.0 | 18.0 | 0.00 | 0.00 | 0.00 | 100 | |
| 20260905140319 | 59 | 175 | 10.0 | 17.0 | 0.00 | 0.00 | 0.00 | 100 | |
| 20260905140119 | 60 | 160 | 10.0 | 16.0 | 0.00 | 0.00 | 0.00 | 100 | |
| 20260905135919 | 60 | 174 | 13.0 | 20.0 | 0.00 | 0.00 | 0.00 | 100 | |
| 20260905135718 | 60 | 183 | 9.0 | 20.0 | 0.00 | 0.00 | 0.00 | 100 | |
| 20260905135518 | 59 | 160 | 8.0 | 15.0 | 0.00 | 0.00 | 0.00 | 100 | |
| 20260905135317 | 59 | 182 | 7.0 | 15.0 | 0.00 | 0.00 | 0.00 | 100 | |
| 20260905135117 | 58 | 143 | 7.0 | 18.0 | 0.00 | 0.00 | 0.00 | 100 | |
| 20260905134917 | 58 | 154 | 9.0 | 18.0 | 0.00 | 0.00 | 0.00 | 100 | |
| 20260905134717 | 58 | 166 | 10.0 | 18.0 | 0.00 | 0.00 | 0.00 | 100 | |
| 20260905134517 | 57 | 163 | 11.0 | 18.0 | 0.00 | 0.00 | 0.00 | 100 | |
| 20260905134317 | 57 | 156 | 10.0 | 13.0 | 0.00 | 0.00 | 0.00 | 100 | |
| 20260905134117 | 57 | 140 | 10.0 | 16.0 | 0.00 | 0.00 | 0.00 | 100 | |
| 20260905133917 | 57 | 136 | 9.0 | 14.0 | 0.00 | 0.00 | 0.00 | 100 | |
| 20260905133717 | 57 | 147 | 9.0 | 13.0 | 0.00 | 0.00 | 0.00 | 100 | |
| 20260905133517 | 57 | 147 | 12.0 | 22.0 | 0.00 | 0.00 | 0.00 | 100 | |
| 20260905133315 | 57 | 174 | 12.0 | 22.0 | 0.00 | 0.00 | 0.00 | 100 | |
| 20260905133115 | 57 | 130 | 12.0 | 20.0 | 0.00 | 0.00 | 0.00 | 100 | |
| 20260905132915 | 58 | 118 | 10.0 | 18.0 | 0.00 | 0.00 | 0.00 | 100 | |
| 20260905132715 | 58 | 217 | 11.0 | 18.0 | 0.00 | 0.00 | 0.00 | 100 | |
| 20260905132515 | 58 | 157 | 11.0 | 18.0 | 0.00 | 0.00 | 0.00 | 100 | |
| 20260905132315 | 57 | 147 | 13.0 | 19.0 | 0.00 | 0.00 | 0.00 | 100 | |
| 20260905132115 | 57 | 173 | 13.0 | 23.0 | 0.00 | 0.00 | 0.00 | 100 | |
| 20260905131915 | 57 | 189 | 13.0 | 23.0 | 0.00 | 0.00 | 0.00 | 100 | |
| 20260905131715 | 56 | 173 | 11.0 | 18.0 | 0.00 | 0.00 | 0.00 | 100 | |
| 20260905131515 | 56 | 186 | 10.0 | 16.0 | 0.00 | 0.00 | 0.00 | 100 | |
| 20260905131313 | 56 | 193 | 12.0 | 17.0 | 0.00 | 0.00 | 0.00 | 100 | |
| 20260905131113 | 56 | 156 | 12.0 | 18.0 | 0.00 | 0.00 | 0.00 | 100 | |
| 20260905130913 | 57 | 160 | 13.0 | 20.0 | 0.00 | 0.00 | 0.00 | 100 | |
| 20260905130703 | 58 | 186 | 14.0 | 22.0 | 0.00 | 0.00 | 0.00 | 100 | |
| 20260905130504 | 58 | 171 | 14.0 | 22.0 | 0.00 | 0.00 | 0.00 | 100 | |
| 20260905130303 | 58 | 172 | 13.0 | 22.0 | 0.00 | 0.00 | 0.00 | 100 | |
| 20260905125903 | 58 | 152 | 12.0 | 19.0 | 0.00 | 0.00 | 0.00 | 100 | |
| 20260905125703 | 58 | 158 | 10.0 | 19.0 | 0.00 | 0.00 | 0.00 | 100 | |
| 20260905125503 | 57 | 176 | 9.0 | 15.0 | 0.00 | 0.00 | 0.00 | 100 | |
| 20260905125301 | 57 | 198 | 10.0 | 17.0 | 0.00 | 0.00 | 0.00 | 100 | |
| 20260905125101 | 57 | 185 | 10.0 | 16.0 | 0.00 | 0.00 | 0.00 | 100 | |
| 20260905124901 | 57 | 176 | 12.0 | 27.0 | 0.00 | 0.00 | 0.00 | 100 | |
| 20260905124701 | 57 | 158 | 11.0 | 17.0 | 0.00 | 0.00 | 0.00 | 100 | |
| 20260905124501 | 57 | 165 | 13.0 | 24.0 | 0.00 | 0.00 | 0.00 | 100 | |
| 20260905124300 | 57 | 182 | 13.0 | 24.0 | 0.00 | 0.00 | 0.00 | 100 | |
| 20260905124100 | 57 | 140 | 10.0 | 16.0 | 0.00 | 0.00 | 0.00 | 100 | |
| 20260905123900 | 57 | 123 | 8.0 | 12.0 | 0.00 | 0.00 | 0.00 | 100 | |
| 20260905123700 | 57 | 105 | 8.0 | 13.0 | 0.00 | 0.00 | 0.00 | 100 | |
| 20260905123501 | 57 | 122 | 8.0 | 12.0 | 0.00 | 0.00 | 0.00 | 100 | |
| 20260905123259 | 57 | 159 | 10.0 | 15.0 | 0.00 | 0.00 | 0.00 | 100 | |
| 20260905123059 | 56 | 169 | 8.0 | 13.0 | 0.00 | 0.00 | 0.00 | 100 | |
| 20260905122859 | 56 | 193 | 10.0 | 16.0 | 0.00 | 0.00 | 0.00 | 100 | |
| 20260905122659 | 57 | 187 | 9.0 | 16.0 | 0.00 | 0.00 | 0.00 | 100 | |
| 20260905122459 | 57 | 135 | 10.0 | 16.0 | 0.00 | 0.00 | 0.00 | 100 | |
| 20260905122259 | 57 | 149 | 10.0 | 20.0 | 0.00 | 0.00 | 0.00 | 100 | |
| 20260905122058 | 57 | 164 | 10.0 | 20.0 | 0.00 | 0.00 | 0.00 | 100 | |
| 20260905121858 | 57 | 167 | 7.0 | 11.0 | 0.00 | 0.00 | 0.00 | 100 | |
| 20260905121658 | 57 | 137 | 10.0 | 17.0 | 0.00 | 0.00 | 0.00 | 100 | |
| 20260905121458 | 57 | 138 | 15.0 | 22.0 | 0.00 | 0.00 | 0.00 | 100 | |
| 20260905121256 | 57 | 141 | 14.0 | 20.0 | 0.00 | 0.00 | 0.00 | 100 | |
| 20260905121056 | 58 | 169 | 9.0 | 17.0 | 0.00 | 0.00 | 0.00 | 100 | |
| 20260905120856 | 58 | 145 | 8.0 | 18.0 | 0.00 | 0.00 | 0.00 | 100 | |
| 20260905120656 | 58 | 180 | 8.0 | 14.0 | 0.00 | 0.00 | 0.00 | 100 | |
| 20260905120500 | 58 | 167 | 8.0 | 14.0 | 0.00 | 0.00 | 0.00 | 100 | |
| 20260905120256 | 57 | 138 | 11.0 | 17.0 | 0.00 | 0.00 | 0.00 | 100 | |
| 20260905120056 | 57 | 169 | 13.0 | 19.0 | 0.00 | 0.00 | 0.00 | 100 | |
| 20260905115856 | 56 | 180 | 10.0 | 19.0 | 0.00 | 0.00 | 0.00 | 100 | |
| 20260905115656 | 56 | 135 | 9.0 | 14.0 | 0.00 | 0.00 | 0.00 | 100 | |
| 20260905115456 | 56 | 168 | 12.0 | 17.0 | 0.00 | 0.00 | 0.00 | 100 | |
| 20260905115254 | 56 | 175 | 13.0 | 17.0 | 0.00 | 0.00 | 0.00 | 100 | |
| 20260905115054 | 56 | 147 | 10.0 | 14.0 | 0.00 | 0.00 | 0.00 | 100 | |
| 20260905114854 | 56 | 209 | 7.0 | 14.0 | 0.00 | 0.00 | 0.00 | 100 | |
| 20260905114654 | 55 | 216 | 8.0 | 13.0 | 0.00 | 0.00 | 0.00 | 100 | |
| 20260905114454 | 55 | 149 | 9.0 | 12.0 | 0.00 | 0.00 | 0.00 | 100 | |
| 20260905114255 | 56 | 201 | 10.0 | 16.0 | 0.00 | 0.00 | 0.00 | 100 | |
| 20260905114055 | 56 | 186 | 13.0 | 18.0 | 0.00 | 0.00 | 0.00 | 100 | |
| 20260905113855 | 56 | 211 | 13.0 | 18.0 | 0.00 | 0.00 | 0.00 | 100 | |
| 20260905113655 | 56 | 200 | 10.0 | 16.0 | 0.00 | 0.00 | 0.00 | 100 | |
| 20260905113455 | 56 | 168 | 7.0 | 13.0 | 0.00 | 0.00 | 0.00 | 100 | |
| 20260905113253 | 56 | 158 | 9.0 | 14.0 | 0.00 | 0.00 | 0.00 | 100 | |
| 20260905113053 | 56 | 195 | 9.0 | 14.0 | 0.00 | 0.00 | 0.00 | 100 | |
| 20260905112853 | 56 | 215 | 9.0 | 12.0 | 0.00 | 0.00 | 0.00 | 100 | |
| 20260905112653 | 56 | 182 | 9.0 | 15.0 | 0.00 | 0.00 | 0.00 | 100 | |
| 20260905112453 | 56 | 151 | 8.0 | 15.0 | 0.00 | 0.00 | 0.00 | 100 | |
| 20260905112253 | 56 | 249 | 11.0 | 19.0 | 0.00 | 0.00 | 0.00 | 100 | |
| 20260905112053 | 56 | 149 | 14.0 | 19.0 | 0.00 | 0.00 | 0.00 | 100 | |
| 20260905111853 | 56 | 118 | 11.0 | 20.0 | 0.00 | 0.00 | 0.00 | 100 | |
| 20260905111653 | 56 | 130 | 12.0 | 20.0 | 0.00 | 0.00 | 0.00 | 100 | |
| 20260905111453 | 56 | 193 | 14.0 | 24.0 | 0.00 | 0.00 | 0.00 | 100 | |
| 20260905111251 | 56 | 187 | 12.0 | 18.0 | 0.00 | 0.00 | 0.00 | 100 | |
| 20260905111051 | 56 | 156 | 13.0 | 26.0 | 0.00 | 0.00 | 0.00 | 100 | |
| 20260905110851 | 56 | 149 | 10.0 | 16.0 | 0.00 | 0.00 | 0.00 | 100 | |
| 20260905110651 | 56 | 238 | 10.0 | 18.0 | 0.00 | 0.00 | 0.00 | 100 | |
| 20260905110451 | 56 | 208 | 9.0 | 13.0 | 0.00 | 0.00 | 0.00 | 100 |